GW0067 Weather Reports


time (UTC)temp
F
wind
direction
speed
knots
gust
knots
rain 1hr
in
rain 24hr
in
rain mn
in
humidity
%
barometer
mb
20260508005008 41 51 0.0 0.0 0.00 0.00 0.00 90 1016.5
20260508004521 41 51 0.0 0.0 0.00 0.00 0.00 90 1016.5
20260508004011 41 51 0.0 0.0 0.00 0.00 0.00 90 1016.5
20260508003509 41 51 0.0 0.0 0.00 0.00 0.00 90 1016.6
20260508003021 42 51 0.0 0.0 0.00 0.00 0.00 90 1016.6
20260508002507 41 51 0.0 0.0 0.00 0.00 0.00 90 1016.6
20260508002011 41 51 0.0 0.0 0.00 0.00 0.00 90 1016.6
20260508001521 41 51 0.0 0.0 0.00 0.00 0.00 90 1016.6
20260508001006 41 51 0.0 0.0 0.00 0.00 0.00 90 1016.6
20260508000507 41 51 0.0 0.0 0.00 0.00 0.00 90 1016.6
20260508000013 41 51 0.0 0.0 0.00 0.00 0.00 89 1016.5
20260507235505 41 51 0.0 0.0 0.00 0.00 0.00 89 1016.6
20260507235008 42 51 0.0 0.0 0.00 0.00 0.00 89 1016.5
20260507234520 41 51 0.0 0.0 0.00 0.00 0.00 89 1016.7
20260507234007 41 51 0.0 0.0 0.00 0.00 0.00 89 1016.8
20260507233508 42 51 0.0 0.0 0.00 0.00 0.00 89 1016.8
20260507233024 42 51 0.0 0.0 0.00 0.00 0.00 89 1016.8
20260507232509 42 51 0.0 0.0 0.00 0.00 0.00 89 1016.8
20260507232010 42 51 0.0 0.0 0.00 0.00 0.00 89 1016.9
20260507231528 42 51 0.0 0.0 0.00 0.00 0.00 88 1016.9
20260507231007 42 51 0.0 0.0 0.00 0.00 0.00 88 1016.8
20260507230508 43 51 0.0 0.0 0.00 0.00 0.00 88 1016.9
20260507230026 43 51 0.0 0.0 0.00 0.00 0.00 88 1016.9
20260507225512 43 51 0.0 0.0 0.00 0.00 0.00 88 1017.0
20260507225007 43 51 0.0 0.0 0.00 0.00 0.00 88 1017.1
20260507224511 43 51 0.0 0.0 0.00 0.00 0.00 87 1017.1
20260507224007 44 51 0.0 0.0 0.00 0.00 0.00 87 1017.1
20260507223508 44 51 0.0 0.0 0.00 0.00 0.00 87 1017.1
20260507223015 44 51 0.0 0.0 0.00 0.00 0.00 87 1017.2
20260507222510 44 51 0.0 0.0 0.00 0.00 0.00 87 1017.2
20260507222011 44 51 0.0 0.0 0.00 0.00 0.00 86 1017.1
20260507221521 45 51 0.0 0.0 0.00 0.00 0.00 86 1016.9
20260507221009 45 51 0.0 0.0 0.00 0.00 0.00 86 1016.8
20260507220509 45 51 0.0 0.0 0.00 0.00 0.00 86 1016.8
20260507220022 45 51 0.0 0.0 0.00 0.00 0.00 86 1016.8
20260507215510 45 51 0.0 0.0 0.00 0.00 0.00 85 1016.8
20260507215010 45 51 0.0 0.0 0.00 0.00 0.00 85 1017.0
20260507214523 45 51 0.0 0.0 0.00 0.00 0.00 85 1017.0
20260507214008 45 51 0.0 0.0 0.00 0.00 0.00 84 1017.1
20260507213507 46 51 0.0 0.0 0.00 0.00 0.00 84 1017.1
20260507213023 46 51 0.0 0.0 0.00 0.00 0.00 84 1017.1
20260507212511 46 51 0.0 0.0 0.00 0.00 0.00 83 1017.0
20260507212010 46 51 0.0 0.0 0.00 0.00 0.00 83 1017.1
20260507211515 47 51 0.0 0.0 0.00 0.00 0.00 82 1017.1
20260507211008 47 51 0.0 0.0 0.00 0.00 0.00 82 1017.1
20260507210512 47 51 0.0 0.0 0.00 0.00 0.00 81 1017.0
20260507210020 47 51 0.0 0.0 0.00 0.00 0.00 80 1016.9
20260507205511 48 51 0.0 0.0 0.00 0.00 0.00 80 1016.8
20260507205012 48 51 0.0 0.0 0.00 0.00 0.00 79 1016.9
20260507204525 48 51 0.0 0.0 0.00 0.00 0.00 79 1016.8
20260507204010 49 51 0.0 0.0 0.00 0.00 0.00 78 1016.8
20260507203510 49 51 0.0 0.0 0.00 0.00 0.00 78 1016.8
20260507203027 50 51 0.0 0.0 0.00 0.00 0.00 77 1016.7
20260507202508 50 51 0.0 0.0 0.00 0.00 0.00 75 1016.7
20260507202012 51 51 0.0 0.0 0.00 0.00 0.00 74 1016.6
20260507201528 51 51 0.0 0.0 0.00 0.00 0.00 73 1016.5
20260507201010 52 51 0.0 0.0 0.00 0.00 0.00 73 1016.4
20260507200510 52 51 0.0 0.0 0.00 0.00 0.00 73 1016.4
20260507200023 52 51 0.0 0.0 0.00 0.00 0.00 72 1016.3
20260507195509 53 51 0.0 0.0 0.00 0.00 0.00 71 1016.2
20260507195008 53 51 0.0 0.0 0.00 0.00 0.00 71 1016.2
20260507194525 54 51 0.0 0.0 0.00 0.00 0.00 70 1016.1
20260507194009 54 51 0.0 0.0 0.00 0.00 0.00 69 1016.1
20260507193510 55 51 0.0 0.0 0.00 0.00 0.00 69 1016.1
20260507193030 55 51 0.0 0.0 0.00 0.00 0.00 68 1016.0
20260507192511 55 51 0.0 0.0 0.00 0.00 0.00 68 1016.0
20260507192005 55 51 0.0 0.0 0.00 0.00 0.00 67 1016.0
20260507191510 56 51 0.0 0.0 0.00 0.00 0.00 67 1015.9
20260507191008 56 98 0.0 0.0 0.00 0.00 0.00 66 1015.9
20260507190508 56 276 0.0 0.0 0.00 0.00 0.00 66 1015.9
20260507190020 56 261 0.0 1.7 0.00 0.00 0.00 66 1015.8
20260507185508 56 316 0.0 1.7 0.00 0.00 0.00 66 1015.8
20260507185010 57 278 0.0 0.9 0.00 0.00 0.00 65 1015.8
20260507184522 57 242 0.0 2.6 0.00 0.00 0.00 66 1015.7
20260507184010 56 229 0.0 2.6 0.00 0.00 0.00 65 1015.8
20260507183511 57 141 0.0 0.0 0.00 0.00 0.00 65 1015.7
20260507183008 57 240 0.0 0.0 0.00 0.00 0.00 65 1015.7
20260507182505 57 253 0.0 0.0 0.00 0.00 0.00 65 1015.7
20260507182007 57 242 0.0 0.0 0.00 0.00 0.00 65 1015.7
20260507181508 57 265 0.0 0.0 0.00 0.00 0.00 65 1015.7
20260507181006 57 219 0.0 0.0 0.00 0.00 0.00 65 1015.6
20260507180507 57 293 0.0 0.0 0.00 0.00 0.00 64 1015.6
20260507180016 57 262 0.0 0.0 0.00 0.00 0.00 64 1015.6
20260507175508 57 240 0.0 0.0 0.00 0.00 0.00 65 1015.5
20260507175008 57 236 0.0 0.0 0.00 0.00 0.00 64 1015.5
20260507174532 57 275 0.0 0.0 0.00 0.00 0.00 62 1015.5
20260507174009 58 131 0.0 2.6 0.00 0.00 0.00 62 1015.5
20260507173509 58 262 0.0 2.6 0.00 0.00 0.00 62 1015.4
20260507173024 58 218 0.0 1.7 0.00 0.00 0.00 62 1015.4
20260507172509 58 260 0.0 0.0 0.00 0.00 0.00 59 1015.3
20260507171006 58 22 0.0 0.0 0.00 0.00 0.00 58 1015.5
20260507170508 58 256 0.0 0.0 0.00 0.00 0.00 58 1015.4
20260507165508 58 277 0.0 0.0 0.00 0.00 0.00 57 1015.4
20260507165008 59 293 0.0 0.9 0.00 0.00 0.00 59 1015.4
20260507164516 59 260 0.0 0.9 0.00 0.00 0.00 57 1015.4
20260507164010 59 25 0.0 0.0 0.00 0.00 0.00 57 1015.4
20260507163510 59 41 0.0 0.0 0.00 0.00 0.00 57 1015.4
20260507163022 59 290 0.0 0.0 0.00 0.00 0.00 57 1015.4
20260507162011 59 252 0.0 1.7 0.00 0.00 0.00 59 1015.3
20260507160516 59 118 0.0 0.9 0.00 0.00 0.00 59 1015.4
20260507155006 60 46 0.0 2.6 0.00 0.00 0.00 57 1015.6
20260507154009 61 323 0.0 2.6 0.00 0.00 0.00 56 1015.5
20260507153509 61 226 0.0 2.6 0.00 0.00 0.00 55 1015.5
20260507153025 61 267 0.0 2.6 0.00 0.00 0.00 50 1015.4
20260507152012 62 10 0.0 2.6 0.00 0.00 0.00 45 1015.4
20260507151011 62 273 0.0 0.0 0.00 0.00 0.00 43 1015.4
20260507145510 61 262 0.0 0.0 0.00 0.00 0.00 42 1015.5
20260507145009 61 262 0.0 0.0 0.00 0.00 0.00 40 1015.5
20260507144524 62 305 0.0 0.0 0.00 0.00 0.00 41 1015.5
20260507144008 62 218 0.0 0.0 0.00 0.00 0.00 40 1015.5
20260507143507 62 37 0.0 0.0 0.00 0.00 0.00 40 1015.6
20260507143029 61 261 0.0 0.0 0.00 0.00 0.00 43 1015.6
20260507142508 61 292 0.0 0.0 0.00 0.00 0.00 41 1015.6
20260507142011 62 259 0.0 0.0 0.00 0.00 0.00 43 1015.7
20260507141519 62 262 0.0 0.0 0.00 0.00 0.00 40 1015.7
20260507141012 62 66 0.0 0.0 0.00 0.00 0.00 40 1015.7
20260507140510 62 258 0.0 0.0 0.00 0.00 0.00 41 1015.8
20260507140025 62 47 0.0 0.0 0.00 0.00 0.00 40 1015.7
20260507135510 62 47 0.0 0.0 0.00 0.00 0.00 38 1015.7
20260507135011 62 54 0.0 0.0 0.00 0.00 0.00 39 1015.8
20260507134524 62 55 0.0 0.0 0.00 0.00 0.00 39 1015.8
20260507134008 62 281 0.0 0.0 0.00 0.00 0.00 42 1015.8
20260507133508 61 278 0.0 0.0 0.00 0.00 0.00 42 1015.8
20260507133026 61 248 0.0 0.0 0.00 0.00 0.00 42 1015.8
20260507132508 61 248 0.0 0.0 0.00 0.00 0.00 41 1015.9
20260507132011 61 244 0.0 0.0 0.00 0.00 0.00 42 1016.0
20260507131516 61 248 0.0 0.0 0.00 0.00 0.00 44 1016.0
20260507130508 60 258 0.0 0.9 0.00 0.00 0.00 43 1015.9
20260507130031 61 265 0.0 0.9 0.00 0.00 0.00 44 1015.9
20260507125513 61 259 0.0 0.0 0.00 0.00 0.00 41 1015.9
20260507125011 61 259 0.0 0.0 0.00 0.00 0.00 42 1016.0
20260507124523 60 128 0.0 0.0 0.00 0.00 0.00 40 1015.9
20260507124008 61 250 0.0 0.0 0.00 0.00 0.00 43 1016.0
20260507123511 60 241 0.0 0.0 0.00 0.00 0.00 42 1016.0
20260507123026 60 243 0.0 0.0 0.00 0.00 0.00 43 1016.0
20260507122510 60 258 0.0 2.6 0.00 0.00 0.00 43 1016.0
20260507122014 60 253 1.7 2.6 0.00 0.00 0.00 46 1016.1
20260507121526 61 262 0.0 0.0 0.00 0.00 0.00 45 1016.1
20260507121008 60 238 0.0 3.5 0.00 0.00 0.00 44 1016.1
20260507120509 60 238 0.0 3.5 0.00 0.00 0.00 45 1016.1
20260507120025 61 255 1.7 3.5 0.00 0.00 0.00 43 1016.1
20260507115009 62 251 0.0 0.9 0.00 0.00 0.00 44 1016.1
20260507114522 63 252 0.0 0.9 0.00 0.00 0.00 40 1016.1
20260507114011 63 85 0.0 0.0 0.00 0.00 0.00 40 1016.1
20260507113511 63 68 0.0 1.7 0.00 0.00 0.00 43 1016.1
20260507113024 62 103 0.0 1.7 0.00 0.00 0.00 43 1016.2
20260507112511 60 196 0.0 1.7 0.00 0.00 0.00 47 1016.2
20260507112009 59 250 0.0 0.0 0.00 0.00 0.00 50 1016.3
20260507111524 58 260 0.0 0.0 0.00 0.00 0.00 49 1016.4
20260507111008 59 241 0.0 0.0 0.00 0.00 0.00 49 1016.4
20260507110509 59 261 0.0 0.0 0.00 0.00 0.00 46 1016.4
20260507105509 61 258 0.0 0.0 0.00 0.00 0.00 47 1016.4
20260507105013 61 249 0.0 0.0 0.00 0.00 0.00 47 1016.4
20260507103506 61 229 0.0 0.0 0.00 0.00 0.00 49 1016.4
20260507103027 60 248 0.0 0.0 0.00 0.00 0.00 54 1016.5
20260507102508 59 248 0.0 0.0 0.00 0.00 0.00 50 1016.5
20260507102006 60 66 0.0 3.5 0.00 0.00 0.00 51 1016.6
20260507101508 60 1 0.0 3.5 0.00 0.00 0.00 47 1016.6
20260507101005 61 23 0.0 0.0 0.00 0.00 0.00 50 1016.6
20260507100504 60 308 0.0 0.0 0.00 0.00 0.00 51 1016.6
20260507100006 59 56 0.0 0.0 0.00 0.00 0.00 52 1016.7
20260507095503 58 120 0.0 0.0 0.00 0.00 0.00 56 1016.7
20260507095003 58 261 0.0 0.0 0.00 0.00 0.00 57 1016.7
20260507094521 57 251 0.0 0.0 0.00 0.00 0.00 61 1016.7
20260507094006 57 247 0.0 0.0 0.00 0.00 0.00 59 1016.7
20260507093504 58 86 0.0 0.0 0.00 0.00 0.00 60 1016.7
20260507093004 58 86 0.0 0.0 0.00 0.00 0.00 59 1016.6
20260507092504 58 86 0.0 0.0 0.00 0.00 0.00 59 1016.7
20260507092005 59 86 0.0 1.7 0.00 0.00 0.00 58 1016.7
20260507091511 58 34 0.0 1.7 0.00 0.00 0.00 60 1016.7
20260507091006 58 204 0.0 3.5 0.00 0.00 0.00 63 1016.7
20260507090505 57 79 0.0 3.5 0.00 0.00 0.00 62 1016.7
20260507090012 57 30 0.0 1.7 0.00 0.00 0.00 65 1016.7
20260507085504 57 77 0.0 1.7 0.00 0.00 0.00 65 1016.8
20260507085009 56 279 0.0 2.6 0.00 0.00 0.00 68 1016.8
20260507084516 56 256 0.0 2.6 0.00 0.00 0.00 69 1016.8
20260507084003 56 52 0.0 0.0 0.00 0.00 0.00 71 1016.8
20260507083502 55 52 0.0 0.0 0.00 0.00 0.00 72 1016.8
20260507083004 55 39 0.0 0.0 0.00 0.00 0.00 74 1016.8
20260507082503 55 281 0.0 0.0 0.00 0.00 0.00 76 1016.8
20260507082002 54 221 0.0 0.0 0.00 0.00 0.00 75 1016.8
20260507080502 53 54 0.0 0.9 0.00 0.00 0.00 78 1016.8
20260507075506 52 212 0.0 0.0 0.00 0.00 0.00 81 1016.8
20260507074512 50 46 0.0 0.0 0.00 0.00 0.00 82 1016.7
20260507073507 50 252 0.0 0.0 0.00 0.00 0.00 85 1016.8
20260507073017 49 252 0.0 0.0 0.00 0.00 0.00 87 1016.8
20260507072503 47 252 0.0 0.0 0.00 0.00 0.00 87 1016.8
20260507072002 47 74 0.0 0.0 0.00 0.00 0.00 89 1016.7
20260507070502 45 275 0.0 0.0 0.00 0.00 0.00 91 1016.7
20260507070010 44 256 0.0 0.0 0.00 0.00 0.00 91 1016.7
20260507065503 43 256 0.0 0.0 0.00 0.00 0.00 91 1016.8
20260507065004 42 255 0.0 0.0 0.00 0.00 0.00 91 1016.8
20260507064507 42 256 0.0 0.0 0.00 0.00 0.00 92 1016.8
20260507064007 41 255 0.0 0.0 0.00 0.00 0.00 92 1016.8
20260507063509 40 255 0.0 0.0 0.00 0.00 0.00 92 1016.7
20260507063016 40 255 0.0 0.0 0.00 0.00 0.00 92 1016.7
20260507062512 39 255 0.0 0.0 0.00 0.00 0.00 92 1016.6
20260507062008 38 255 0.0 0.0 0.00 0.00 0.00 92 1016.6
20260507061520 38 50 0.0 0.0 0.00 0.00 0.00 92 1016.6
20260507061011 37 112 0.0 0.0 0.00 0.00 0.00 92 1016.6
20260507060005 37 112 0.0 0.0 0.00 0.00 0.00 92 1016.5
20260507055504 36 112 0.0 0.0 0.00 0.00 0.00 92 1016.6
20260507055002 36 112 0.0 0.0 0.00 0.00 0.00 92 1016.5
20260507054508 36 112 0.0 0.0 0.00 0.00 0.00 92 1016.4
20260507054003 36 112 0.0 0.0 0.00 0.00 0.00 92 1016.4
20260507053502 36 112 0.0 0.0 0.00 0.00 0.00 92 1016.4
20260507053010 36 112 0.0 0.0 0.00 0.00 0.00 92 1016.3
20260507052507 35 112 0.0 0.0 0.00 0.00 0.00 92 1016.3
20260507052004 35 112 0.0 0.0 0.00 0.00 0.00 92 1016.3
20260507051008 35 112 0.0 0.0 0.00 0.00 0.00 92 1016.2
20260507050033 34 112 0.0 0.0 0.00 0.00 0.00 92 1016.2
20260507045512 34 112 0.0 0.0 0.00 0.00 0.00 92 1016.1
20260507045009 34 112 0.0 0.0 0.00 0.00 0.00 92 1016.0
20260507044506 34 112 0.0 0.0 0.00 0.00 0.00 92 1016.0
20260507044002 34 112 0.0 0.0 0.00 0.00 0.00 92 1016.0
20260507043504 34 112 0.0 0.0 0.00 0.00 0.00 92 1016.0
20260507042504 34 112 0.0 0.0 0.00 0.00 0.00 92 1015.9
20260507042007 34 112 0.0 0.0 0.00 0.00 0.00 92 1015.9
20260507041524 34 112 0.0 0.0 0.00 0.00 0.00 92 1016.0
20260507041004 34 112 0.0 0.0 0.00 0.00 0.00 92 1016.0
20260507040505 34 112 0.0 0.0 0.00 0.00 0.00 92 1016.1
20260507040019 34 112 0.0 0.0 0.00 0.00 0.00 92 1016.1
20260507035508 34 112 0.0 0.0 0.00 0.00 0.00 92 1016.0
20260507035011 34 112 0.0 0.0 0.00 0.00 0.00 91 1016.0
20260507034523 34 112 0.0 0.0 0.00 0.00 0.00 92 1016.0
20260507034009 35 112 0.0 0.0 0.00 0.00 0.00 91 1016.0
20260507033509 35 112 0.0 0.0 0.00 0.00 0.00 91 1016.0
20260507033024 35 112 0.0 0.0 0.00 0.00 0.00 91 1015.9
20260507032510 35 112 0.0 0.0 0.00 0.00 0.00 91 1016.0
20260507032003 35 112 0.0 0.0 0.00 0.00 0.00 91 1016.0
20260507031510 35 112 0.0 0.0 0.00 0.00 0.00 91 1016.1
20260507031003 35 112 0.0 0.0 0.00 0.00 0.00 91 1016.0
20260507030511 35 112 0.0 0.0 0.00 0.00 0.00 91 1016.0
20260507030026 35 112 0.0 0.0 0.00 0.00 0.00 91 1016.0
20260507025505 36 112 0.0 0.0 0.00 0.00 0.00 91 1016.0
20260507025006 36 112 0.0 0.0 0.00 0.00 0.00 91 1016.0
20260507024525 36 112 0.0 0.0 0.00 0.00 0.00 91 1016.0
20260507024008 36 112 0.0 0.0 0.00 0.00 0.00 91 1016.0
20260507023506 36 112 0.0 0.0 0.00 0.00 0.00 91 1015.9
20260507023022 36 112 0.0 0.0 0.00 0.00 0.00 91 1016.0
20260507022509 36 112 0.0 0.0 0.00 0.00 0.00 91 1015.9
20260507022008 36 112 0.0 0.0 0.00 0.00 0.00 91 1015.9
20260507021522 36 112 0.0 0.0 0.00 0.00 0.00 91 1015.9
20260507021011 36 112 0.0 0.0 0.00 0.00 0.00 91 1015.9
20260507020508 37 112 0.0 0.0 0.00 0.00 0.00 91 1015.9
20260507020012 37 112 0.0 0.0 0.00 0.00 0.00 91 1015.8
20260507015508 37 112 0.0 0.0 0.00 0.00 0.00 91 1015.8
20260507015008 37 112 0.0 0.0 0.00 0.00 0.00 91 1015.8
20260507014517 37 112 0.0 0.0 0.00 0.00 0.00 91 1015.8
20260507014009 37 112 0.0 0.0 0.00 0.00 0.00 91 1015.8
20260507013507 37 112 0.0 0.0 0.00 0.00 0.00 91 1015.8
20260507013021 38 112 0.0 0.0 0.00 0.00 0.00 91 1015.8
20260507012510 38 112 0.0 0.0 0.00 0.00 0.00 90 1015.8
20260507012009 38 112 0.0 0.0 0.00 0.00 0.00 91 1015.9
20260507011522 38 112 0.0 0.0 0.00 0.00 0.00 90 1015.9
20260507011004 38 112 0.0 0.0 0.00 0.00 0.00 90 1015.8
20260507010504 38 112 0.0 0.0 0.00 0.00 0.00 90 1015.8
20260507010008 38 112 0.0 0.0 0.00 0.00 0.00 90 1015.8
20260507005505 38 112 0.0 0.0 0.00 0.00 0.00 90 1015.8